This is the latest recevied weather packets stored in our database for station/object KD8AZC-13. If no packets are shown the sender has not sent any weather packets the latest 10 day(s).
| Time | Temp. | Humidity | Pressure | Rain* | Wind** | Luminosity | Snow |
|---|---|---|---|---|---|---|---|
| 1777495524 | 15° C | 90% | 1004.8 hPa | 1.27 mm | - | - | - |
| 1777480242 | 14.44° C | 90% | 1009.8 hPa | 0 mm | - | - | - |
| 1777477530 | 14.44° C | 90% | 1009.8 hPa | 0 mm | - | - | - |
| 1777473930 | 13.89° C | 91% | 1010.8 hPa | 0 mm | - | - | - |
| 1777473010 | 13.33° C | 91% | 1011.3 hPa | 0 mm | - | - | - |
| 1777471205 | 13.33° C | 91% | 1011.8 hPa | 0 mm | - | - | - |
| 1777468501 | 12.78° C | 91% | 1011 hPa | 0 mm | - | - | - |
| 1777467661 | 12.22° C | 91% | 1011.1 hPa | 0 mm | - | - | - |
| 1777464956 | 12.22° C | 92% | 1011.5 hPa | 0 mm | - | - | - |
| 1777459549 | 11.11° C | 92% | 1012 hPa | 0 mm | - | - | - |
| 1777455944 | 11.11° C | 92% | 1012.1 hPa | 0 mm | - | - | - |
| 1777452338 | 11.11° C | 91% | 1012.6 hPa | 0 mm | - | - | - |
| 1777449637 | 11.11° C | 91% | 1012.5 hPa | 0 mm | - | - | - |
| 1777440620 | 12.22° C | 90% | 1013.9 hPa | 0 mm | - | - | - |
| 1777439716 | 12.22° C | 90% | 1014.2 hPa | 0 mm | - | - | - |
| 1777437008 | 12.78° C | 91% | 1014.9 hPa | 0 mm | - | - | - |
| 1777432503 | 12.78° C | 91% | 1014.9 hPa | 0 mm | - | - | - |
| 1777429803 | 12.78° C | 91% | 1015.2 hPa | 0 mm | - | - | - |
| 1777426268 | 12.78° C | 90% | 1014.9 hPa | 0 mm | - | - | - |
| 1777419050 | 16.11° C | 84% | 1013.3 hPa | 0 mm | - | - | - |
| 1777417241 | 16.11° C | 83% | 1013.7 hPa | 0 mm | - | - | - |
| 1777415438 | 16.11° C | 82% | 1014.3 hPa | 0 mm | - | - | - |
| 1777413649 | 16.11° C | 83% | 1014 hPa | 0 mm | - | - | - |
| 1777410935 | 16.11° C | 82% | 1013.9 hPa | 0 mm | - | - | - |
| 1777405526 | 15° C | 83% | 1014.5 hPa | 0 mm | - | - | - |
* Rain latest hour (hover to see other rain measurements)
** Current wind speed in m/s (hover to see current wind gust speed)